Location: ?nandapuram
(16.5396°N, 81.1430°E)
Time: 22:20:20
(UTC+00:00)

ATLAS 5 CENTAUR R/B - Pass Details

Date: 14 April 2026
Orbit: 263 x 10949 km, 20.1° (Epoch: 9 May)

Event Time Altitude Azimuth Distance (km) Brightness Sun altitude
Exits shadow 20:42:20 82° 3° (N) 3,070 4.2 -49.2°
Maximum altitude 20:42:28 82° 9° (N) 3,093 4.2 -49.1°
Drops below altitude 10° 21:38:22 10° 100° (E) 14,064 8.4 -37.8°
Sets 21:59:50 0° 102° (ESE) 16,062 8.9 -33.1°
